Location: Forli
(44.2227°N, 12.0407°E)
Time: 13:54:38
(UTC+02:00)

UWE-3 - Pass Details

Date: 24 April 2026
Orbit: 542 x 613 km, 97.9° (Epoch: 10 May)

Event Time Altitude Azimuth Distance (km) Brightness Sun altitude
Rises 04:06:13 0° 13° (NNE) 2,723 ? -20.3°
Reaches altitude 10° 04:08:21 10° 13° (NNE) 1,820 ? -20.1°
Maximum altitude 04:12:17 88° 99° (E) 549 ? -19.5°
Enters shadow 04:13:21 47° 191° (S) 724 ? -19.4°
